Time,TemperatureF,DewpointF,PressureIn,WindDirection,WindDirectionDegrees,WindSpeedMPH,WindSpeedGustMPH,Humidity,HourlyPrecipIn,Conditions,Clouds,dailyrainin,SoftwareType,DateUTC
2013-07-12 00:00:00,66.4,61.1,29.94,NNE,23,0.0,0.0,83,0.00,,---,0.00,VWS V14.01,2013-07-12 04:00:00,
2013-07-12 00:10:00,66.0,61.4,29.94,NNE,23,0.0,0.0,85,0.00,,---,0.00,VWS V14.01,2013-07-12 04:10:00,
2013-07-12 00:20:00,65.5,62.2,29.95,ESE,122,0.0,0.0,89,0.00,,---,0.00,VWS V14.01,2013-07-12 04:20:00,
2013-07-12 00:40:00,65.2,62.5,29.94,ESE,121,0.0,0.0,91,0.00,,---,0.00,VWS V14.01,2013-07-12 04:40:00,
2013-07-12 00:50:00,65.3,62.3,29.94,ESE,121,0.0,0.0,90,0.00,,---,0.00,VWS V14.01,2013-07-12 04:50:00,
2013-07-12 07:01:00,59.2,57.2,29.97,NNW,327,0.0,0.0,93,0.00,,---,0.00,VWS V14.01,2013-07-12 11:01:00,
2013-07-12 07:02:00,59.2,57.2,29.97,NNW,327,0.0,0.0,93,0.00,,---,0.00,VWS V14.01,2013-07-12 11:02:00,
2013-07-12 07:07:00,59.3,57.3,29.97,NNW,327,0.0,0.0,93,0.00,,---,0.00,VWS V14.01,2013-07-12 11:07:00,
2013-07-12 07:10:00,59.3,57.3,29.97,NNW,327,0.0,0.0,93,0.00,,---,0.00,VWS V14.01,2013-07-12 11:10:00,
2013-07-12 07:12:00,59.4,57.4,29.98,NNW,327,0.0,0.0,93,0.00,,---,0.00,VWS V14.01,2013-07-12 11:12:00,
2013-07-12 07:17:00,59.6,57.6,29.98,NNW,327,0.0,0.0,93,0.00,,---,0.00,VWS V14.01,2013-07-12 11:17:00,
2013-07-12 07:20:00,59.6,57.6,29.98,NW,319,0.0,0.0,93,0.00,,---,0.00,VWS V14.01,2013-07-12 11:20:00,
2013-07-12 07:22:00,59.8,57.5,29.98,NNW,338,0.0,0.0,92,0.00,,---,0.00,VWS V14.01,2013-07-12 11:22:00,
2013-07-12 07:27:00,60.0,57.7,29.98,NNE,15,0.0,1.0,92,0.00,,---,0.00,VWS V14.01,2013-07-12 11:27:00,
2013-07-12 07:30:00,60.0,57.4,29.98,NW,313,0.0,2.0,91,0.00,,---,0.00,VWS V14.01,2013-07-12 11:30:00,
2013-07-12 07:32:00,60.1,57.5,29.99,NNW,327,0.0,0.0,91,0.00,,---,0.00,VWS V14.01,2013-07-12 11:32:00,
2013-07-12 07:37:00,60.1,57.5,29.98,NW,309,1.0,1.0,91,0.00,,---,0.00,VWS V14.01,2013-07-12 11:37:00,
2013-07-12 07:40:00,60.2,57.6,29.99,North,11,0.0,1.0,91,0.00,,---,0.00,VWS V14.01,2013-07-12 11:40:00,
2013-07-12 07:42:00,60.2,57.6,29.99,North,5,0.0,1.0,91,0.00,,---,0.00,VWS V14.01,2013-07-12 11:42:00,
2013-07-12 07:47:00,60.3,57.7,29.99,NW,322,0.0,1.0,91,0.00,,---,0.00,VWS V14.01,2013-07-12 11:47:00,
2013-07-12 07:50:00,60.3,57.7,29.99,NW,315,0.0,1.0,91,0.00,,---,0.00,VWS V14.01,2013-07-12 11:50:00,
2013-07-12 07:52:00,60.4,57.8,29.99,NW,323,0.0,1.0,91,0.00,,---,0.00,VWS V14.01,2013-07-12 11:52:00,
2013-07-12 07:57:00,60.6,57.7,29.99,NNE,23,0.0,2.0,90,0.00,,---,0.00,VWS V14.01,2013-07-12 11:57:00,
2013-07-12 08:00:00,60.6,58.0,29.99,North,355,2.0,2.0,91,0.00,,---,0.00,VWS V14.01,2013-07-12 12:00:00,
2013-07-12 08:02:00,60.8,57.8,29.99,NNE,19,1.0,3.0,90,0.00,,---,0.00,VWS V14.01,2013-07-12 12:02:00,
2013-07-12 08:07:00,61.0,58.0,29.99,ENE,67,1.0,3.0,90,0.00,,---,0.00,VWS V14.01,2013-07-12 12:07:00,
2013-07-12 08:10:00,61.1,58.2,29.99,NE,34,1.0,3.0,90,0.00,,---,0.00,VWS V14.01,2013-07-12 12:10:00,
2013-07-12 08:12:00,61.2,58.2,30.00,NNE,12,0.0,2.0,90,0.00,,---,0.00,VWS V14.01,2013-07-12 12:12:00,
2013-07-12 08:17:00,61.4,58.1,30.00,NE,47,0.0,3.0,89,0.00,,---,0.00,VWS V14.01,2013-07-12 12:17:00,
2013-07-12 08:20:00,61.4,58.1,30.00,NNE,26,4.0,4.0,89,0.00,,---,0.00,VWS V14.01,2013-07-12 12:20:00,
2013-07-12 08:22:00,61.5,58.2,30.00,NNE,31,0.0,4.0,89,0.00,,---,0.00,VWS V14.01,2013-07-12 12:22:00,
2013-07-12 08:27:00,61.8,58.8,30.00,NNE,17,0.0,4.0,90,0.00,,---,0.00,VWS V14.01,2013-07-12 12:27:00,
2013-07-12 08:30:00,61.8,58.5,30.00,NNW,340,3.0,4.0,89,0.00,,---,0.00,VWS V14.01,2013-07-12 12:30:00,
2013-07-12 08:32:00,61.8,58.5,30.00,NE,34,1.0,5.0,89,0.00,,---,0.00,VWS V14.01,2013-07-12 12:32:00,
2013-07-12 08:37:00,62.0,58.7,30.00,NE,35,0.0,5.0,89,0.00,,---,0.00,VWS V14.01,2013-07-12 12:37:00,
2013-07-12 08:40:00,62.1,58.8,30.00,NNW,344,3.0,5.0,89,0.00,,---,0.00,VWS V14.01,2013-07-12 12:40:00,
2013-07-12 08:43:00,62.1,58.8,30.00,NE,54,0.0,4.0,89,0.00,,---,0.00,VWS V14.01,2013-07-12 12:43:00,
2013-07-12 08:48:00,62.4,59.1,30.01,NNW,347,3.0,4.0,89,0.00,,---,0.00,VWS V14.01,2013-07-12 12:48:00,
2013-07-12 08:50:00,62.4,59.1,30.01,NNW,333,1.0,4.0,89,0.00,,---,0.00,VWS V14.01,2013-07-12 12:50:00,
2013-07-12 08:53:00,62.6,59.3,30.00,NNE,12,0.0,2.0,89,0.00,,---,0.00,VWS V14.01,2013-07-12 12:53:00,
2013-07-12 08:58:00,62.9,59.6,30.00,NNE,19,1.0,2.0,89,0.00,,---,0.00,VWS V14.01,2013-07-12 12:58:00,
2013-07-12 09:00:00,62.9,59.3,30.00,NNE,29,0.0,2.0,88,0.00,,---,0.00,VWS V14.01,2013-07-12 13:00:00,
2013-07-12 09:03:00,63.1,59.5,30.01,North,350,0.0,1.0,88,0.00,,---,0.00,VWS V14.01,2013-07-12 13:03:00,
2013-07-12 09:08:00,63.4,59.8,30.01,NNW,347,0.0,1.0,88,0.00,,---,0.00,VWS V14.01,2013-07-12 13:08:00,
2013-07-12 09:10:00,63.4,59.8,30.01,NNE,28,0.0,1.0,88,0.00,,---,0.00,VWS V14.01,2013-07-12 13:10:00,
2013-07-12 09:13:00,63.6,59.7,30.00,NNE,28,0.0,2.0,87,0.00,,---,0.00,VWS V14.01,2013-07-12 13:13:00,
2013-07-12 09:18:00,63.7,59.8,30.01,NNW,337,0.0,2.0,87,0.00,,---,0.00,VWS V14.01,2013-07-12 13:18:00,
2013-07-12 09:20:00,63.8,59.9,30.01,NNW,340,0.0,2.0,87,0.00,,---,0.00,VWS V14.01,2013-07-12 13:20:00,
2013-07-12 09:23:00,64.0,60.1,30.01,NNE,15,0.0,0.0,87,0.00,,---,0.00,VWS V14.01,2013-07-12 13:23:00,
2013-07-12 09:28:00,64.3,60.3,30.01,WSW,254,0.0,0.0,87,0.00,,---,0.00,VWS V14.01,2013-07-12 13:28:00,
2013-07-12 09:30:00,64.3,60.7,30.01,NW,308,0.0,0.0,88,0.00,,---,0.00,VWS V14.01,2013-07-12 13:30:00,
2013-07-12 09:33:00,64.3,60.0,30.01,NE,51,0.0,2.0,86,0.00,,---,0.00,VWS V14.01,2013-07-12 13:33:00,
2013-07-12 09:38:00,64.2,59.6,30.01,NNE,24,0.0,2.0,85,0.00,,---,0.00,VWS V14.01,2013-07-12 13:38:00,
2013-07-12 09:40:00,64.2,59.6,30.01,NE,34,0.0,2.0,85,0.00,,---,0.00,VWS V14.01,2013-07-12 13:40:00,
2013-07-12 09:43:00,64.3,60.0,30.01,NNE,29,0.0,0.0,86,0.00,,---,0.00,VWS V14.01,2013-07-12 13:43:00,
2013-07-12 09:48:00,64.5,60.2,30.01,NNW,327,0.0,0.0,86,0.00,,---,0.00,VWS V14.01,2013-07-12 13:48:00,
2013-07-12 09:50:00,64.5,59.9,30.01,NW,310,1.0,1.0,85,0.00,,---,0.00,VWS V14.01,2013-07-12 13:50:00,
2013-07-12 09:53:00,64.5,60.2,30.01,NNE,13,0.0,2.0,86,0.00,,---,0.00,VWS V14.01,2013-07-12 13:53:00,
2013-07-12 09:58:00,64.6,60.0,30.01,NNW,327,0.0,2.0,85,0.00,,---,0.00,VWS V14.01,2013-07-12 13:58:00,
2013-07-12 10:00:00,64.6,60.0,30.01,NNW,327,0.0,2.0,85,0.00,,---,0.00,VWS V14.01,2013-07-12 14:00:00,
2013-07-12 10:03:00,64.8,60.2,30.01,NNW,344,0.0,1.0,85,0.00,,---,0.00,VWS V14.01,2013-07-12 14:03:00,
2013-07-12 10:08:00,64.7,59.8,30.01,NNW,331,0.0,2.0,84,0.00,,---,0.00,VWS V14.01,2013-07-12 14:08:00,
2013-07-12 10:10:00,64.7,60.1,30.01,NNW,341,0.0,2.0,85,0.00,,---,0.00,VWS V14.01,2013-07-12 14:10:00,
2013-07-12 10:13:00,64.8,59.9,30.01,NE,36,2.0,3.0,84,0.00,,---,0.00,VWS V14.01,2013-07-12 14:13:00,
2013-07-12 10:18:00,64.9,60.3,30.01,NNE,33,0.0,3.0,85,0.00,,---,0.00,VWS V14.01,2013-07-12 14:18:00,
2013-07-12 10:20:00,65.0,60.4,30.01,NNE,32,0.0,3.0,85,0.00,,---,0.00,VWS V14.01,2013-07-12 14:20:00,
2013-07-12 10:23:00,65.2,60.6,30.01,NW,310,0.0,0.0,85,0.00,,---,0.00,VWS V14.01,2013-07-12 14:23:00,
2013-07-12 10:28:00,65.7,60.7,30.02,NE,53,0.0,0.0,84,0.00,,---,0.00,VWS V14.01,2013-07-12 14:28:00,
2013-07-12 10:30:00,65.8,60.8,30.02,NE,38,0.0,0.0,84,0.00,,---,0.00,VWS V14.01,2013-07-12 14:30:00,
2013-07-12 10:33:00,65.9,60.6,30.02,East,100,1.0,1.0,83,0.00,,---,0.00,VWS V14.01,2013-07-12 14:33:00,
2013-07-12 10:38:00,66.0,61.0,30.02,NE,42,0.0,1.0,84,0.00,,---,0.00,VWS V14.01,2013-07-12 14:38:00,
2013-07-12 10:40:00,66.1,61.1,30.02,WSW,257,0.0,1.0,84,0.00,,---,0.00,VWS V14.01,2013-07-12 14:40:00,
2013-07-12 10:43:00,66.7,61.0,30.02,NNE,31,0.0,2.0,82,0.00,,---,0.00,VWS V14.01,2013-07-12 14:43:00,
2013-07-12 10:48:00,67.0,61.3,30.02,NNE,22,2.0,2.0,82,0.00,,---,0.00,VWS V14.01,2013-07-12 14:48:00,
2013-07-12 10:50:00,67.0,61.3,30.02,NNE,18,3.0,4.0,82,0.00,,---,0.00,VWS V14.01,2013-07-12 14:50:00,
2013-07-12 10:53:00,67.4,62.1,30.02,NW,313,0.0,3.0,83,0.00,,---,0.00,VWS V14.01,2013-07-12 14:53:00,
2013-07-12 10:58:00,68.3,62.2,30.02,ESE,123,0.0,3.0,81,0.00,,---,0.00,VWS V14.01,2013-07-12 14:58:00,
2013-07-12 11:00:00,68.4,62.7,30.02,SSW,203,0.0,3.0,82,0.00,,---,0.00,VWS V14.01,2013-07-12 15:00:00,
2013-07-12 11:03:00,69.5,62.7,30.01,WNW,289,0.0,2.0,79,0.00,,---,0.00,VWS V14.01,2013-07-12 15:03:00,
2013-07-12 11:08:00,69.8,62.6,30.01,West,261,0.0,4.0,78,0.00,,---,0.00,VWS V14.01,2013-07-12 15:08:00,
2013-07-12 11:10:00,69.8,62.6,30.01,West,261,0.0,4.0,78,0.00,,---,0.00,VWS V14.01,2013-07-12 15:10:00,
2013-07-12 11:13:00,69.7,62.2,30.01,NNW,342,1.0,3.0,77,0.00,,---,0.00,VWS V14.01,2013-07-12 15:13:00,
2013-07-12 11:18:00,69.9,62.7,30.01,WNW,290,1.0,3.0,78,0.00,,---,0.00,VWS V14.01,2013-07-12 15:18:00,
2013-07-12 11:20:00,69.9,62.7,30.01,WNW,290,0.0,3.0,78,0.00,,---,0.00,VWS V14.01,2013-07-12 15:20:00,
2013-07-12 11:23:00,70.2,62.3,30.01,WNW,295,0.0,6.0,76,0.00,,---,0.00,VWS V14.01,2013-07-12 15:23:00,
2013-07-12 11:28:00,70.7,63.1,30.01,WSW,258,0.0,6.0,77,0.00,,---,0.00,VWS V14.01,2013-07-12 15:28:00,
2013-07-12 11:30:00,70.7,63.1,30.01,West,259,0.0,6.0,77,0.00,,---,0.00,VWS V14.01,2013-07-12 15:30:00,
2013-07-12 11:33:00,71.7,64.1,30.01,ENE,66,0.0,3.0,77,0.00,,---,0.00,VWS V14.01,2013-07-12 15:33:00,
2013-07-12 11:38:00,72.1,64.1,30.01,WNW,302,0.0,4.0,76,0.00,,---,0.00,VWS V14.01,2013-07-12 15:38:00,
2013-07-12 11:40:00,72.1,64.1,30.01,West,259,0.0,4.0,76,0.00,,---,0.00,VWS V14.01,2013-07-12 15:40:00,
2013-07-12 11:43:00,72.5,64.1,30.01,NNW,345,0.0,3.0,75,0.00,,---,0.00,VWS V14.01,2013-07-12 15:43:00,
2013-07-12 11:48:00,72.0,63.7,30.01,NW,325,1.0,3.0,75,0.00,,---,0.00,VWS V14.01,2013-07-12 15:48:00,
2013-07-12 11:50:00,72.0,63.7,30.01,NW,306,2.0,3.0,75,0.00,,---,0.00,VWS V14.01,2013-07-12 15:50:00,
2013-07-12 11:53:00,71.5,63.5,30.01,WSW,246,0.0,3.0,76,0.00,,---,0.00,VWS V14.01,2013-07-12 15:53:00,
2013-07-12 11:58:00,71.8,64.2,30.01,ENE,66,0.0,3.0,77,0.00,,---,0.00,VWS V14.01,2013-07-12 15:58:00,
2013-07-12 12:00:00,71.8,64.2,30.01,ENE,66,0.0,3.0,77,0.00,,---,0.00,VWS V14.01,2013-07-12 16:00:00,
2013-07-12 12:03:00,71.9,63.5,30.02,NW,315,1.0,2.0,75,0.00,,---,0.00,VWS V14.01,2013-07-12 16:03:00,
2013-07-12 12:08:00,71.6,63.6,30.02,WSW,251,0.0,2.0,76,0.00,,---,0.00,VWS V14.01,2013-07-12 16:08:00,
2013-07-12 12:10:00,71.6,63.6,30.02,WSW,251,0.0,2.0,76,0.00,,---,0.00,VWS V14.01,2013-07-12 16:10:00,
2013-07-12 12:13:00,72.1,64.9,30.01,WSW,248,0.0,0.0,78,0.00,,---,0.00,VWS V14.01,2013-07-12 16:13:00,
2013-07-12 12:18:00,72.7,64.3,30.01,NNW,346,0.0,2.0,75,0.00,,---,0.00,VWS V14.01,2013-07-12 16:18:00,
2013-07-12 12:20:00,72.7,64.3,30.01,NNW,346,0.0,2.0,75,0.00,,---,0.00,VWS V14.01,2013-07-12 16:20:00,
2013-07-12 12:24:00,72.9,64.5,30.01,NW,306,1.0,1.0,75,0.00,,---,0.00,VWS V14.01,2013-07-12 16:24:00,
2013-07-12 12:29:00,72.9,65.3,30.01,NE,55,0.0,0.0,77,0.00,,---,0.00,VWS V14.01,2013-07-12 16:29:00,
2013-07-12 12:30:00,72.9,65.3,30.01,NE,55,0.0,3.0,77,0.00,,---,0.00,VWS V14.01,2013-07-12 16:30:00,
2013-07-12 12:34:00,73.0,65.0,30.01,NW,323,2.0,4.0,76,0.00,,---,0.00,VWS V14.01,2013-07-12 16:34:00,
2013-07-12 12:39:00,73.0,65.0,30.01,NNW,347,0.0,0.0,76,0.00,,---,0.00,VWS V14.01,2013-07-12 16:39:00,
2013-07-12 12:40:00,73.0,65.0,30.01,NNW,347,0.0,6.0,76,0.00,,---,0.00,VWS V14.01,2013-07-12 16:40:00,
2013-07-12 12:44:00,73.1,64.7,30.00,NW,306,0.0,4.0,75,0.00,,---,0.00,VWS V14.01,2013-07-12 16:44:00,
2013-07-12 12:49:00,73.0,65.4,30.00,WNW,295,1.0,1.0,77,0.00,,---,0.00,VWS V14.01,2013-07-12 16:49:00,
2013-07-12 12:50:00,72.9,65.3,30.00,NNW,336,0.0,4.0,77,0.00,,---,0.00,VWS V14.01,2013-07-12 16:50:00,
2013-07-12 12:54:00,73.4,65.4,30.00,NE,36,1.0,4.0,76,0.00,,---,0.00,VWS V14.01,2013-07-12 16:54:00,
2013-07-12 12:59:00,73.6,65.9,30.00,NNW,345,1.0,3.0,77,0.00,,---,0.00,VWS V14.01,2013-07-12 16:59:00,
2013-07-12 13:00:00,73.5,65.5,30.00,NW,321,3.0,4.0,76,0.00,,---,0.00,VWS V14.01,2013-07-12 17:00:00,
2013-07-12 13:04:00,73.9,66.2,30.01,ENE,69,1.0,5.0,77,0.00,,---,0.00,VWS V14.01,2013-07-12 17:04:00,
2013-07-12 13:09:00,73.8,65.8,30.01,WNW,292,1.0,3.0,76,0.00,,---,0.00,VWS V14.01,2013-07-12 17:09:00,
2013-07-12 13:10:00,73.9,65.9,30.01,NNW,347,0.0,5.0,76,0.00,,---,0.00,VWS V14.01,2013-07-12 17:10:00,
2013-07-12 13:14:00,74.1,66.4,30.01,SSW,205,0.0,3.0,77,0.00,,---,0.00,VWS V14.01,2013-07-12 17:14:00,
2013-07-12 13:20:00,74.4,65.2,30.01,ENE,67,0.0,2.0,73,0.00,,---,0.00,VWS V14.01,2013-07-12 17:20:00,
2013-07-12 13:25:00,74.4,65.2,30.01,NNE,16,1.0,4.0,73,0.00,,---,0.00,VWS V14.01,2013-07-12 17:25:00,
2013-07-12 13:30:00,74.3,64.7,30.00,NE,51,2.0,5.0,72,0.00,,---,0.00,VWS V14.01,2013-07-12 17:30:00,
2013-07-12 13:35:00,74.2,65.0,30.00,North,5,2.0,10.0,73,0.00,,---,0.00,VWS V14.01,2013-07-12 17:35:00,
2013-07-12 13:40:00,74.4,65.2,30.00,NNW,340,0.0,8.0,73,0.00,,---,0.00,VWS V14.01,2013-07-12 17:40:00,
2013-07-12 13:46:00,74.7,65.1,30.00,NE,46,4.0,8.0,72,0.00,,---,0.00,VWS V14.01,2013-07-12 17:46:00,
2013-07-12 13:50:00,74.8,65.6,30.00,ENE,59,0.0,8.0,73,0.00,,---,0.00,VWS V14.01,2013-07-12 17:50:00,
2013-07-12 13:51:00,75.0,65.4,30.00,NW,326,2.0,7.0,72,0.00,,---,0.00,VWS V14.01,2013-07-12 17:51:00,
2013-07-12 13:56:00,74.9,64.9,30.00,NNE,12,3.0,7.0,71,0.00,,---,0.00,VWS V14.01,2013-07-12 17:56:00,
2013-07-12 14:00:00,74.7,64.7,30.00,NNE,29,5.0,7.0,71,0.00,,---,0.00,VWS V14.01,2013-07-12 18:00:00,
2013-07-12 14:02:00,74.3,64.3,30.00,NNW,337,3.0,7.0,71,0.00,,---,0.00,VWS V14.01,2013-07-12 18:02:00,
2013-07-12 14:07:00,74.1,64.9,30.00,NNE,31,0.0,10.0,73,0.00,,---,0.00,VWS V14.01,2013-07-12 18:07:00,
2013-07-12 14:10:00,74.1,65.3,30.00,NNE,32,2.0,10.0,74,0.00,,---,0.00,VWS V14.01,2013-07-12 18:10:00,
2013-07-12 14:12:00,73.9,64.7,30.00,North,11,2.0,6.0,73,0.00,,---,0.00,VWS V14.01,2013-07-12 18:12:00,
2013-07-12 14:17:00,73.8,65.0,30.00,NW,309,0.0,7.0,74,0.00,,---,0.00,VWS V14.01,2013-07-12 18:17:00,
2013-07-12 14:20:00,73.8,65.0,30.00,NE,44,0.0,7.0,74,0.00,,---,0.00,VWS V14.01,2013-07-12 18:20:00,
2013-07-12 14:22:00,73.8,65.0,30.00,NNE,26,4.0,8.0,74,0.00,,---,0.00,VWS V14.01,2013-07-12 18:22:00,
2013-07-12 14:28:00,73.6,65.2,30.00,WNW,283,0.0,8.0,75,0.00,,---,0.00,VWS V14.01,2013-07-12 18:28:00,
2013-07-12 14:30:00,73.6,65.2,30.00,NNW,345,2.0,8.0,75,0.00,,---,0.00,VWS V14.01,2013-07-12 18:30:00,
2013-07-12 14:33:00,73.1,65.1,30.00,NW,311,0.0,8.0,76,0.06,,---,0.06,VWS V14.01,2013-07-12 18:33:00,
2013-07-12 14:38:00,71.7,65.9,30.01,North,360,2.0,8.0,82,0.07,,---,0.07,VWS V14.01,2013-07-12 18:38:00,
2013-07-12 14:40:00,71.6,65.8,30.01,North,350,3.0,8.0,82,0.07,,---,0.07,VWS V14.01,2013-07-12 18:40:00,
2013-07-12 14:43:00,70.8,65.0,30.00,NW,323,0.0,9.0,82,0.08,,---,0.08,VWS V14.01,2013-07-12 18:43:00,
2013-07-12 14:48:00,70.2,64.4,30.01,NE,43,4.0,9.0,82,0.08,,---,0.08,VWS V14.01,2013-07-12 18:48:00,
2013-07-12 14:50:00,70.2,64.4,30.01,NNE,17,1.0,9.0,82,0.08,,---,0.08,VWS V14.01,2013-07-12 18:50:00,
2013-07-12 14:53:00,69.9,64.8,30.00,NE,49,1.0,5.0,84,0.08,,---,0.08,VWS V14.01,2013-07-12 18:53:00,
2013-07-12 14:58:00,69.8,65.1,30.01,NNE,27,1.0,5.0,85,0.08,,---,0.08,VWS V14.01,2013-07-12 18:58:00,
2013-07-12 15:00:00,69.8,65.1,30.01,NNE,27,1.0,5.0,85,0.08,,---,0.08,VWS V14.01,2013-07-12 19:00:00,
2013-07-12 15:03:00,70.0,66.0,30.00,NNW,340,0.0,3.0,87,0.08,,---,0.08,VWS V14.01,2013-07-12 19:03:00,
2013-07-12 15:08:00,70.3,66.2,30.00,SSW,194,0.0,3.0,87,0.08,,---,0.08,VWS V14.01,2013-07-12 19:08:00,
2013-07-12 15:10:00,70.3,66.2,30.00,SSW,194,0.0,3.0,87,0.08,,---,0.08,VWS V14.01,2013-07-12 19:10:00,
2013-07-12 15:13:00,70.5,65.8,30.00,NNE,32,0.0,2.0,85,0.08,,---,0.08,VWS V14.01,2013-07-12 19:13:00,
2013-07-12 15:18:00,70.7,66.3,30.01,NNW,344,0.0,2.0,86,0.08,,---,0.08,VWS V14.01,2013-07-12 19:18:00,
2013-07-12 15:20:00,70.7,66.3,30.01,NNW,344,0.0,2.0,86,0.08,,---,0.08,VWS V14.01,2013-07-12 19:20:00,
2013-07-12 15:24:00,71.0,66.3,30.01,NNE,32,0.0,0.0,85,0.08,,---,0.08,VWS V14.01,2013-07-12 19:24:00,
2013-07-12 15:29:00,71.3,66.6,30.01,NNW,331,0.0,0.0,85,0.08,,---,0.08,VWS V14.01,2013-07-12 19:29:00,
2013-07-12 15:30:00,71.3,66.6,30.01,NNE,31,0.0,0.0,85,0.08,,---,0.08,VWS V14.01,2013-07-12 19:30:00,
2013-07-12 15:34:00,71.2,66.5,30.01,NNE,30,0.0,1.0,85,0.08,,---,0.08,VWS V14.01,2013-07-12 19:34:00,
2013-07-12 15:39:00,71.2,66.1,30.01,NNE,16,1.0,1.0,84,0.01,,---,0.08,VWS V14.01,2013-07-12 19:39:00,
2013-07-12 15:40:00,71.2,66.5,30.01,NW,311,1.0,2.0,85,0.08,,---,0.08,VWS V14.01,2013-07-12 19:40:00,
2013-07-12 15:44:00,71.2,66.1,30.01,NNW,342,0.0,2.0,84,0.01,,---,0.08,VWS V14.01,2013-07-12 19:44:00,
2013-07-12 15:49:00,71.4,67.0,30.01,West,271,0.0,0.0,86,0.00,,---,0.08,VWS V14.01,2013-07-12 19:49:00,
2013-07-12 15:50:00,71.3,66.9,30.01,NNW,337,0.0,2.0,86,0.01,,---,0.08,VWS V14.01,2013-07-12 19:50:00,
2013-07-12 15:54:00,71.4,67.0,30.01,NNE,12,0.0,2.0,86,0.00,,---,0.08,VWS V14.01,2013-07-12 19:54:00,
2013-07-12 16:00:00,71.2,66.5,30.01,NW,319,0.0,3.0,85,0.00,,---,0.08,VWS V14.01,2013-07-12 20:00:00,
2013-07-12 16:05:00,71.1,66.4,30.01,NW,315,1.0,3.0,85,0.00,,---,0.08,VWS V14.01,2013-07-12 20:05:00,
2013-07-12 16:10:00,70.9,65.8,30.00,North,5,0.0,1.0,84,0.00,,---,0.08,VWS V14.01,2013-07-12 20:10:00,
2013-07-12 16:15:00,70.8,66.1,30.00,NW,310,1.0,1.0,85,0.00,,---,0.08,VWS V14.01,2013-07-12 20:15:00,
2013-07-12 16:20:00,70.7,64.9,30.00,NW,317,1.0,2.0,82,0.00,,---,0.08,VWS V14.01,2013-07-12 20:20:00,
2013-07-12 16:25:00,70.7,64.9,30.00,NNW,333,0.0,3.0,82,0.00,,---,0.08,VWS V14.01,2013-07-12 20:25:00,
2013-07-12 16:30:00,70.5,65.1,30.00,NNW,337,0.0,1.0,83,0.00,,---,0.08,VWS V14.01,2013-07-12 20:30:00,
2013-07-12 16:35:00,70.5,65.4,30.00,North,11,1.0,3.0,84,0.00,,---,0.08,VWS V14.01,2013-07-12 20:35:00,
2013-07-12 16:40:00,70.5,65.8,30.01,NW,325,1.0,2.0,85,0.00,,---,0.08,VWS V14.01,2013-07-12 20:40:00,
2013-07-12 16:45:00,70.6,65.9,30.00,NNW,331,0.0,3.0,85,0.00,,---,0.08,VWS V14.01,2013-07-12 20:45:00,
2013-07-12 16:50:00,70.6,66.2,30.00,NNE,16,0.0,3.0,86,0.00,,---,0.08,VWS V14.01,2013-07-12 20:50:00,
2013-07-12 16:51:00,70.6,66.2,30.00,NNW,344,0.0,1.0,86,0.00,,---,0.08,VWS V14.01,2013-07-12 20:51:00,
2013-07-12 16:56:00,70.6,66.6,30.00,NNW,346,0.0,2.0,87,0.00,,---,0.08,VWS V14.01,2013-07-12 20:56:00,
2013-07-12 17:00:00,70.7,66.7,30.00,ENE,59,0.0,2.0,87,0.00,,---,0.08,VWS V14.01,2013-07-12 21:00:00,
2013-07-12 17:01:00,70.6,66.6,30.01,NW,319,0.0,2.0,87,0.00,,---,0.08,VWS V14.01,2013-07-12 21:01:00,
2013-07-12 17:06:00,70.7,66.7,30.01,NNW,347,0.0,4.0,87,0.00,,---,0.08,VWS V14.01,2013-07-12 21:06:00,
2013-07-12 17:10:00,70.7,66.7,30.01,WNW,300,0.0,4.0,87,0.00,,---,0.08,VWS V14.01,2013-07-12 21:10:00,
2013-07-12 17:11:00,70.7,66.7,30.01,NW,306,0.0,3.0,87,0.00,,---,0.08,VWS V14.01,2013-07-12 21:11:00,
2013-07-12 17:16:00,70.6,66.9,30.01,NNE,17,1.0,3.0,88,0.00,,---,0.08,VWS V14.01,2013-07-12 21:16:00,
2013-07-12 17:20:00,70.6,66.6,30.01,WNW,299,0.0,3.0,87,0.00,,---,0.08,VWS V14.01,2013-07-12 21:20:00,
2013-07-12 17:21:00,70.6,66.9,30.01,NW,315,0.0,2.0,88,0.00,,---,0.08,VWS V14.01,2013-07-12 21:21:00,
2013-07-12 17:27:00,70.5,66.8,30.01,North,355,0.0,2.0,88,0.00,,---,0.08,VWS V14.01,2013-07-12 21:27:00,
2013-07-12 17:30:00,70.6,66.9,30.01,North,11,0.0,2.0,88,0.00,,---,0.08,VWS V14.01,2013-07-12 21:30:00,
2013-07-12 17:32:00,70.6,66.9,30.01,North,355,0.0,2.0,88,0.00,,---,0.08,VWS V14.01,2013-07-12 21:32:00,
2013-07-12 17:37:00,70.6,66.9,30.02,NW,315,1.0,2.0,88,0.00,,---,0.08,VWS V14.01,2013-07-12 21:37:00,
2013-07-12 17:40:00,70.7,67.0,30.02,NW,326,0.0,2.0,88,0.00,,---,0.08,VWS V14.01,2013-07-12 21:40:00,
2013-07-12 17:42:00,70.7,67.0,30.02,NNW,340,0.0,1.0,88,0.00,,---,0.08,VWS V14.01,2013-07-12 21:42:00,
2013-07-12 17:47:00,70.8,67.1,30.02,NW,311,1.0,2.0,88,0.00,,---,0.08,VWS V14.01,2013-07-12 21:47:00,
2013-07-12 17:50:00,70.8,66.7,30.02,NW,310,2.0,2.0,87,0.00,,---,0.08,VWS V14.01,2013-07-12 21:50:00,
2013-07-12 17:52:00,70.7,66.7,30.01,WNW,291,1.0,4.0,87,0.00,,---,0.08,VWS V14.01,2013-07-12 21:52:00,
2013-07-12 17:57:00,70.7,66.7,30.01,NNW,337,1.0,4.0,87,0.00,,---,0.08,VWS V14.01,2013-07-12 21:57:00,
2013-07-12 18:00:00,70.7,66.7,30.01,WNW,299,0.0,4.0,87,0.00,,---,0.08,VWS V14.01,2013-07-12 22:00:00,
2013-07-12 18:02:00,70.7,66.7,30.01,NW,317,0.0,2.0,87,0.00,,---,0.08,VWS V14.01,2013-07-12 22:02:00,
2013-07-12 18:07:00,70.6,66.6,30.01,NNW,348,0.0,2.0,87,0.00,,---,0.08,VWS V14.01,2013-07-12 22:07:00,
2013-07-12 18:10:00,70.7,66.7,30.01,NNW,337,0.0,2.0,87,0.00,,---,0.08,VWS V14.01,2013-07-12 22:10:00,
2013-07-12 18:12:00,70.7,67.0,30.01,NNE,26,0.0,2.0,88,0.00,,---,0.08,VWS V14.01,2013-07-12 22:12:00,
2013-07-12 18:17:00,70.6,66.6,30.01,NNW,327,0.0,2.0,87,0.00,,---,0.08,VWS V14.01,2013-07-12 22:17:00,
2013-07-12 18:20:00,70.6,66.9,30.01,North,351,0.0,2.0,88,0.00,,---,0.08,VWS V14.01,2013-07-12 22:20:00,
2013-07-12 18:22:00,70.6,66.9,30.01,WNW,296,0.0,2.0,88,0.00,,---,0.08,VWS V14.01,2013-07-12 22:22:00,
2013-07-12 18:28:00,70.6,66.9,30.01,NE,36,0.0,2.0,88,0.00,,---,0.08,VWS V14.01,2013-07-12 22:28:00,
2013-07-12 18:30:00,70.6,66.9,30.01,NW,309,0.0,2.0,88,0.00,,---,0.08,VWS V14.01,2013-07-12 22:30:00,
2013-07-12 18:33:00,70.7,67.0,30.02,NNE,15,0.0,2.0,88,0.00,,---,0.08,VWS V14.01,2013-07-12 22:33:00,
2013-07-12 18:38:00,70.5,66.4,30.02,NW,315,0.0,3.0,87,0.00,,---,0.08,VWS V14.01,2013-07-12 22:38:00,
2013-07-12 18:40:00,70.5,66.4,30.02,NW,315,0.0,3.0,87,0.00,,---,0.08,VWS V14.01,2013-07-12 22:40:00,
2013-07-12 18:43:00,70.5,66.8,30.02,NW,321,0.0,1.0,88,0.01,,---,0.09,VWS V14.01,2013-07-12 22:43:00,
2013-07-12 18:48:00,70.4,67.0,30.02,NW,321,0.0,1.0,89,0.01,,---,0.09,VWS V14.01,2013-07-12 22:48:00,
2013-07-12 18:50:00,70.4,67.0,30.02,NW,321,0.0,1.0,89,0.01,,---,0.09,VWS V14.01,2013-07-12 22:50:00,
2013-07-12 18:53:00,70.1,66.7,30.02,NNW,328,0.0,1.0,89,0.01,,---,0.09,VWS V14.01,2013-07-12 22:53:00,
2013-07-12 18:59:00,69.9,66.8,30.02,NW,323,0.0,1.0,90,0.02,,---,0.10,VWS V14.01,2013-07-12 22:59:00,
2013-07-12 19:00:00,69.9,66.8,30.02,NW,323,0.0,1.0,90,0.02,,---,0.10,VWS V14.01,2013-07-12 23:00:00,
2013-07-12 19:04:00,69.8,67.1,30.02,WNW,284,0.0,0.0,91,0.02,,---,0.10,VWS V14.01,2013-07-12 23:04:00,
2013-07-12 19:09:00,69.7,67.0,30.02,West,277,0.0,0.0,91,0.02,,---,0.10,VWS V14.01,2013-07-12 23:09:00,
2013-07-12 19:10:00,69.7,67.0,30.02,West,277,0.0,0.0,91,0.02,,---,0.10,VWS V14.01,2013-07-12 23:10:00,
2013-07-12 19:14:00,69.7,67.3,30.02,West,277,0.0,0.0,92,0.02,,---,0.10,VWS V14.01,2013-07-12 23:14:00,
2013-07-12 19:19:00,69.6,67.2,30.02,West,277,0.0,0.0,92,0.02,,---,0.10,VWS V14.01,2013-07-12 23:19:00,
2013-07-12 19:20:00,69.6,67.2,30.02,West,277,0.0,0.0,92,0.02,,---,0.10,VWS V14.01,2013-07-12 23:20:00,
2013-07-12 19:24:00,69.5,67.1,30.02,SW,215,0.0,0.0,92,0.02,,---,0.10,VWS V14.01,2013-07-12 23:24:00,
2013-07-12 19:29:00,69.3,66.9,30.02,WSW,250,0.0,0.0,92,0.03,,---,0.11,VWS V14.01,2013-07-12 23:29:00,
2013-07-12 19:30:00,69.3,66.9,30.02,WSW,250,0.0,1.0,92,0.03,,---,0.11,VWS V14.01,2013-07-12 23:30:00,
2013-07-12 19:34:00,69.0,66.6,30.02,WSW,246,0.0,0.0,92,0.04,,---,0.12,VWS V14.01,2013-07-12 23:34:00,
2013-07-12 19:39:00,68.9,66.8,30.02,WSW,248,0.0,0.0,93,0.05,,---,0.13,VWS V14.01,2013-07-12 23:39:00,
2013-07-12 19:40:00,68.9,66.8,30.02,WSW,248,0.0,0.0,93,0.05,,---,0.13,VWS V14.01,2013-07-12 23:40:00,
2013-07-12 19:45:00,68.7,66.6,30.02,WSW,256,0.0,0.0,93,0.05,,---,0.13,VWS V14.01,2013-07-12 23:45:00,
2013-07-12 19:50:00,68.6,66.5,30.02,WSW,244,0.0,0.0,93,0.05,,---,0.14,VWS V14.01,2013-07-12 23:50:00,
2013-07-12 19:55:00,68.5,66.4,30.03,North,349,0.0,0.0,93,0.05,,---,0.14,VWS V14.01,2013-07-12 23:55:00,
2013-07-12 20:00:00,68.4,66.3,30.03,WSW,256,0.0,0.0,93,0.04,,---,0.14,VWS V14.01,2013-07-13 00:00:00,
2013-07-12 20:05:00,68.3,66.2,30.03,WSW,248,0.0,1.0,93,0.04,,---,0.14,VWS V14.01,2013-07-13 00:05:00,
2013-07-12 20:10:00,68.3,66.5,30.03,SW,215,0.0,1.0,94,0.04,,---,0.14,VWS V14.01,2013-07-13 00:10:00,
2013-07-12 20:15:00,68.3,66.5,30.03,WSW,249,0.0,1.0,94,0.04,,---,0.14,VWS V14.01,2013-07-13 00:15:00,
2013-07-12 20:20:00,68.3,66.2,30.03,WSW,257,0.0,1.0,93,0.04,,---,0.14,VWS V14.01,2013-07-13 00:20:00,
2013-07-12 20:25:00,68.1,66.0,30.03,WSW,245,0.0,1.0,93,0.04,,---,0.14,VWS V14.01,2013-07-13 00:25:00,
2013-07-12 20:30:00,68.1,66.0,30.03,WSW,238,0.0,1.0,93,0.04,,---,0.14,VWS V14.01,2013-07-13 00:30:00,
2013-07-12 20:31:00,68.1,66.3,30.03,WSW,246,0.0,0.0,94,0.03,,---,0.14,VWS V14.01,2013-07-13 00:31:00,
2013-07-12 20:36:00,68.0,66.2,30.03,SSW,193,0.0,0.0,94,0.03,,---,0.14,VWS V14.01,2013-07-13 00:36:00,
2013-07-12 20:40:00,67.8,65.7,30.03,WSW,238,0.0,1.0,93,0.03,,---,0.14,VWS V14.01,2013-07-13 00:40:00,
2013-07-12 20:41:00,67.7,65.6,30.03,WSW,238,0.0,0.0,93,0.01,,---,0.14,VWS V14.01,2013-07-13 00:41:00,
2013-07-12 20:46:00,67.6,65.8,30.03,NW,309,0.0,0.0,94,0.01,,---,0.14,VWS V14.01,2013-07-13 00:46:00,
2013-07-12 20:50:00,67.5,65.7,30.03,WSW,250,0.0,1.0,94,0.01,,---,0.14,VWS V14.01,2013-07-13 00:50:00,
2013-07-12 20:51:00,67.5,65.7,30.03,WSW,238,0.0,1.0,94,0.00,,---,0.14,VWS V14.01,2013-07-13 00:51:00,
2013-07-12 20:56:00,67.4,65.6,30.03,WSW,249,0.0,1.0,94,0.00,,---,0.14,VWS V14.01,2013-07-13 00:56:00,
2013-07-12 21:00:00,67.3,65.5,30.03,WSW,237,0.0,1.0,94,0.00,,---,0.14,VWS V14.01,2013-07-13 01:00:00,
2013-07-12 21:01:00,67.2,65.4,30.03,WSW,237,0.0,0.0,94,0.00,,---,0.14,VWS V14.01,2013-07-13 01:01:00,
2013-07-12 21:07:00,67.0,65.2,30.03,South,177,1.0,2.0,94,0.00,,---,0.14,VWS V14.01,2013-07-13 01:07:00,
2013-07-12 21:10:00,67.0,65.2,30.03,SSW,206,1.0,2.0,94,0.00,,---,0.14,VWS V14.01,2013-07-13 01:10:00,
2013-07-12 21:12:00,67.0,65.2,30.03,SSE,154,2.0,6.0,94,0.00,,---,0.14,VWS V14.01,2013-07-13 01:12:00,
2013-07-12 21:17:00,66.6,64.5,30.04,SW,215,0.0,7.0,93,0.00,,---,0.14,VWS V14.01,2013-07-13 01:17:00,
2013-07-12 21:20:00,66.6,64.8,30.04,SSW,198,2.0,7.0,94,0.00,,---,0.14,VWS V14.01,2013-07-13 01:20:00,
2013-07-12 21:22:00,66.4,64.6,30.04,SSW,194,2.0,5.0,94,0.00,,---,0.14,VWS V14.01,2013-07-13 01:22:00,
2013-07-12 21:27:00,66.4,64.6,30.04,NNW,331,0.0,5.0,94,0.00,,---,0.14,VWS V14.01,2013-07-13 01:27:00,
2013-07-12 21:30:00,66.4,64.6,30.04,East,96,0.0,5.0,94,0.00,,---,0.14,VWS V14.01,2013-07-13 01:30:00,
2013-07-12 21:32:00,66.4,64.6,30.03,WSW,244,0.0,1.0,94,0.00,,---,0.14,VWS V14.01,2013-07-13 01:32:00,
2013-07-12 21:38:00,66.3,64.5,30.04,NW,326,0.0,2.0,94,0.00,,---,0.14,VWS V14.01,2013-07-13 01:38:00,
2013-07-12 21:40:00,66.2,64.4,30.04,NNW,330,0.0,2.0,94,0.00,,---,0.14,VWS V14.01,2013-07-13 01:40:00,
2013-07-12 21:43:00,66.1,64.3,30.04,NW,317,0.0,0.0,94,0.00,,---,0.14,VWS V14.01,2013-07-13 01:43:00,
2013-07-12 21:48:00,66.0,64.2,30.04,NW,313,1.0,1.0,94,0.00,,---,0.14,VWS V14.01,2013-07-13 01:48:00,
2013-07-12 21:50:00,66.0,64.2,30.04,NW,317,0.0,1.0,94,0.00,,---,0.14,VWS V14.01,2013-07-13 01:50:00,
2013-07-12 21:53:00,66.0,64.2,30.04,SW,232,0.0,0.0,94,0.00,,---,0.14,VWS V14.01,2013-07-13 01:53:00,
2013-07-12 21:58:00,65.9,64.1,30.05,SW,233,0.0,0.0,94,0.00,,---,0.14,VWS V14.01,2013-07-13 01:58:00,
2013-07-12 22:00:00,65.9,64.1,30.05,SW,233,0.0,0.0,94,0.00,,---,0.14,VWS V14.01,2013-07-13 02:00:00,
2013-07-12 22:04:00,65.8,64.0,30.05,WSW,238,0.0,0.0,94,0.00,,---,0.14,VWS V14.01,2013-07-13 02:04:00,
2013-07-12 22:09:00,65.8,64.3,30.05,SW,230,2.0,2.0,95,0.00,,---,0.14,VWS V14.01,2013-07-13 02:09:00,
2013-07-12 22:10:00,65.8,64.3,30.05,WSW,244,1.0,1.0,95,0.00,,---,0.14,VWS V14.01,2013-07-13 02:10:00,
2013-07-12 22:14:00,65.8,64.3,30.05,WSW,241,0.0,2.0,95,0.00,,---,0.14,VWS V14.01,2013-07-13 02:14:00,
2013-07-12 22:19:00,65.8,64.3,30.05,SW,214,1.0,2.0,95,0.00,,---,0.14,VWS V14.01,2013-07-13 02:19:00,
2013-07-12 22:20:00,65.8,64.3,30.05,SW,229,1.0,2.0,95,0.00,,---,0.14,VWS V14.01,2013-07-13 02:20:00,
2013-07-12 22:24:00,65.6,63.8,30.06,SW,222,2.0,5.0,94,0.00,,---,0.14,VWS V14.01,2013-07-13 02:24:00,
2013-07-12 22:30:00,65.5,63.7,30.06,SSW,208,2.0,4.0,94,0.00,,---,0.14,VWS V14.01,2013-07-13 02:30:00,
2013-07-12 22:35:00,65.3,63.5,30.05,SW,226,0.0,4.0,94,0.00,,---,0.14,VWS V14.01,2013-07-13 02:35:00,
2013-07-12 22:40:00,65.2,63.4,30.05,South,182,2.0,2.0,94,0.00,,---,0.14,VWS V14.01,2013-07-13 02:40:00,
2013-07-12 22:45:00,65.0,63.2,30.05,SW,229,0.0,2.0,94,0.00,,---,0.14,VWS V14.01,2013-07-13 02:45:00,
2013-07-12 22:50:00,64.9,63.1,30.06,SW,236,0.0,0.0,94,0.00,,---,0.14,VWS V14.01,2013-07-13 02:50:00,
2013-07-12 22:55:00,64.8,63.0,30.06,WSW,246,0.0,2.0,94,0.00,,---,0.14,VWS V14.01,2013-07-13 02:55:00,
2013-07-12 23:00:00,64.7,62.9,30.06,WSW,250,0.0,0.0,94,0.00,,---,0.14,VWS V14.01,2013-07-13 03:00:00,
2013-07-12 23:05:00,64.7,63.2,30.06,West,260,0.0,0.0,95,0.00,,---,0.14,VWS V14.01,2013-07-13 03:05:00,
2013-07-12 23:10:00,64.7,63.2,30.06,WSW,257,0.0,0.0,95,0.00,,---,0.14,VWS V14.01,2013-07-13 03:10:00,
2013-07-12 23:11:00,64.7,63.2,30.06,WSW,257,0.0,0.0,95,0.00,,---,0.14,VWS V14.01,2013-07-13 03:11:00,
2013-07-12 23:16:00,64.7,62.9,30.07,WSW,254,0.0,0.0,94,0.00,,---,0.14,VWS V14.01,2013-07-13 03:16:00,
2013-07-12 23:20:00,64.6,63.1,30.07,WSW,241,0.0,0.0,95,0.00,,---,0.14,VWS V14.01,2013-07-13 03:20:00,
2013-07-12 23:21:00,64.6,63.1,30.07,WSW,248,0.0,1.0,95,0.00,,---,0.14,VWS V14.01,2013-07-13 03:21:00,
2013-07-12 23:26:00,64.5,63.0,30.07,SW,222,1.0,1.0,95,0.00,,---,0.14,VWS V14.01,2013-07-13 03:26:00,
2013-07-12 23:30:00,65.5,63.7,30.06,SW,219,0.0,5.0,94,0.00,,---,0.14,VWS V14.01,2013-07-13 03:30:00,
2013-07-12 23:40:00,65.2,63.7,30.06,SSW,192,0.0,4.0,95,0.00,,---,0.14,VWS V14.01,2013-07-13 03:40:00,
2013-07-12 23:50:00,65.0,63.2,30.05,WSW,237,0.0,2.0,94,0.00,,---,0.14,VWS V14.01,2013-07-13 03:50:00,